| time (UTC) | temp F | wind direction | speed MPH | gust MPH | rain 1hr in | rain 24hr in | rain mn in | humidity % | barometer mb |
| 20260510022002 | 57 | 341 | 0.0 | 1.0 | 0.00 | 0.00 | 0.00 | 82 | 1009.6 |
| 20260510021511 | 58 | 341 | 0.0 | 0.0 | 0.00 | 0.00 | 0.00 | 82 | 1009.5 |
| 20260510021002 | 58 | 341 | 0.0 | 0.0 | 0.00 | 0.00 | 0.00 | 81 | 1009.5 |
| 20260510020502 | 58 | 341 | 0.0 | 2.0 | 0.00 | 0.00 | 0.00 | 80 | 1009.4 |
| 20260510020005 | 59 | 341 | 0.0 | 2.0 | 0.00 | 0.00 | 0.00 | 79 | 1009.3 |
| 20260510015503 | 59 | 341 | 0.0 | 2.0 | 0.00 | 0.00 | 0.00 | 79 | 1009.2 |
| 20260510015003 | 59 | 341 | 0.0 | 2.0 | 0.00 | 0.00 | 0.00 | 78 | 1009.2 |
| 20260510014510 | 59 | 341 | 0.0 | 2.0 | 0.00 | 0.00 | 0.00 | 78 | 1009.1 |
| 20260510014004 | 59 | 341 | 0.0 | 2.0 | 0.00 | 0.00 | 0.00 | 79 | 1009.0 |
| 20260510013504 | 59 | 341 | 0.0 | 0.0 | 0.00 | 0.00 | 0.00 | 79 | 1009.0 |
| 20260510013013 | 60 | 341 | 0.0 | 2.0 | 0.00 | 0.00 | 0.00 | 78 | 1009.0 |
| 20260510012504 | 60 | 341 | 0.0 | 2.0 | 0.00 | 0.00 | 0.00 | 77 | 1009.0 |
| 20260510012002 | 60 | 341 | 0.0 | 2.0 | 0.00 | 0.00 | 0.00 | 76 | 1008.9 |
| 20260510011505 | 60 | 341 | 0.0 | 2.0 | 0.00 | 0.00 | 0.00 | 75 | 1008.7 |
| 20260510011002 | 61 | 341 | 0.0 | 1.0 | 0.00 | 0.00 | 0.00 | 74 | 1008.7 |
| 20260510010502 | 62 | 341 | 0.0 | 0.0 | 0.00 | 0.00 | 0.00 | 72 | 1008.6 |
| 20260510010005 | 62 | 341 | 0.0 | 1.0 | 0.00 | 0.00 | 0.00 | 70 | 1008.5 |
| 20260510005504 | 63 | 341 | 0.0 | 2.0 | 0.00 | 0.00 | 0.00 | 70 | 1008.3 |
| 20260510005003 | 63 | 341 | 0.0 | 2.0 | 0.00 | 0.00 | 0.00 | 70 | 1008.2 |
| 20260510004505 | 63 | 341 | 0.0 | 2.0 | 0.00 | 0.00 | 0.00 | 69 | 1008.2 |
| 20260510004007 | 63 | 341 | 0.0 | 2.0 | 0.00 | 0.00 | 0.00 | 70 | 1008.0 |
| 20260510003504 | 64 | 341 | 0.0 | 2.0 | 0.00 | 0.00 | 0.00 | 68 | 1008.0 |
| 20260510003008 | 64 | 341 | 0.0 | 2.0 | 0.00 | 0.00 | 0.00 | 67 | 1008.1 |
| 20260510002510 | 64 | 341 | 0.0 | 2.0 | 0.00 | 0.00 | 0.00 | 67 | 1008.0 |
| 20260510002004 | 64 | 341 | 0.0 | 2.0 | 0.00 | 0.00 | 0.00 | 67 | 1008.1 |
| 20260510001514 | 65 | 341 | 0.0 | 2.0 | 0.00 | 0.00 | 0.00 | 66 | 1008.0 |
| 20260510001007 | 65 | 341 | 0.0 | 2.0 | 0.00 | 0.00 | 0.00 | 66 | 1008.1 |
| 20260510000501 | 65 | 341 | 0.0 | 2.0 | 0.00 | 0.00 | 0.00 | 67 | 1008.0 |
| 20260510000008 | 66 | 341 | 0.0 | 2.0 | 0.00 | 0.00 | 0.00 | 65 | 1008.0 |
| 20260509235502 | 66 | 305 | 0.0 | 2.0 | 0.00 | 0.00 | 0.00 | 65 | 1008.1 |
| 20260509235008 | 66 | 351 | 0.0 | 2.0 | 0.00 | 0.00 | 0.00 | 64 | 1008.0 |
| 20260509234507 | 67 | 351 | 0.0 | 2.0 | 0.00 | 0.00 | 0.00 | 64 | 1008.0 |
| 20260509234007 | 67 | 237 | 0.0 | 2.0 | 0.00 | 0.00 | 0.00 | 63 | 1007.8 |
| 20260509233504 | 68 | 237 | 0.0 | 2.0 | 0.00 | 0.00 | 0.00 | 61 | 1007.9 |
| 20260509233005 | 68 | 237 | 0.0 | 2.0 | 0.00 | 0.00 | 0.00 | 60 | 1007.8 |
| 20260509232507 | 69 | 237 | 0.0 | 2.0 | 0.00 | 0.00 | 0.00 | 58 | 1007.8 |
| 20260509232005 | 69 | 52 | 0.0 | 2.0 | 0.00 | 0.00 | 0.00 | 57 | 1007.8 |
| 20260509231511 | 70 | 48 | 0.0 | 2.0 | 0.00 | 0.00 | 0.00 | 57 | 1007.6 |
| 20260509231004 | 70 | 46 | 0.0 | 2.0 | 0.00 | 0.00 | 0.00 | 56 | 1007.7 |
| 20260509230505 | 70 | 46 | 0.0 | 2.0 | 0.00 | 0.00 | 0.00 | 55 | 1007.7 |
| 20260509230016 | 71 | 46 | 0.0 | 2.0 | 0.00 | 0.00 | 0.00 | 56 | 1007.8 |
| 20260509225506 | 71 | 46 | 0.0 | 2.0 | 0.00 | 0.00 | 0.00 | 52 | 1007.7 |
| 20260509225006 | 71 | 49 | 0.0 | 2.0 | 0.00 | 0.00 | 0.00 | 55 | 1007.6 |
| 20260509224504 | 71 | 55 | 0.0 | 2.0 | 0.00 | 0.00 | 0.00 | 56 | 1007.6 |
| 20260509224003 | 71 | 100 | 0.0 | 2.0 | 0.00 | 0.00 | 0.00 | 52 | 1007.6 |
| 20260509223504 | 72 | 143 | 0.0 | 2.0 | 0.00 | 0.00 | 0.00 | 53 | 1007.5 |
| 20260509223005 | 72 | 143 | 0.0 | 2.0 | 0.00 | 0.00 | 0.00 | 51 | 1007.7 |
| 20260509222503 | 72 | 113 | 1.0 | 3.0 | 0.00 | 0.00 | 0.00 | 51 | 1007.8 |
| 20260509222006 | 72 | 61 | 1.0 | 4.0 | 0.00 | 0.00 | 0.00 | 54 | 1007.8 |
| 20260509221529 | 72 | 133 | 2.0 | 4.0 | 0.00 | 0.00 | 0.00 | 53 | 1007.7 |
| 20260509221005 | 71 | 28 | 0.0 | 2.0 | 0.00 | 0.00 | 0.00 | 53 | 1007.7 |
| 20260509220504 | 71 | 26 | 0.0 | 2.0 | 0.00 | 0.00 | 0.00 | 54 | 1007.7 |
| 20260509220025 | 71 | 28 | 1.0 | 2.0 | 0.00 | 0.00 | 0.00 | 52 | 1007.7 |
| 20260509215507 | 71 | 180 | 0.0 | 2.0 | 0.00 | 0.00 | 0.00 | 52 | 1007.7 |
| 20260509215011 | 71 | 262 | 0.0 | 3.0 | 0.00 | 0.00 | 0.00 | 50 | 1007.7 |
| 20260509214518 | 72 | 261 | 1.0 | 3.0 | 0.00 | 0.00 | 0.00 | 50 | 1007.7 |
| 20260509214010 | 72 | 240 | 1.0 | 2.0 | 0.00 | 0.00 | 0.00 | 50 | 1007.7 |
| 20260509213507 | 72 | 236 | 0.0 | 2.0 | 0.00 | 0.00 | 0.00 | 51 | 1007.6 |
| 20260509213024 | 71 | 180 | 1.0 | 2.0 | 0.00 | 0.00 | 0.00 | 51 | 1007.5 |
| 20260509212503 | 71 | 122 | 1.0 | 2.0 | 0.00 | 0.00 | 0.00 | 51 | 1007.6 |
| 20260509212008 | 71 | 202 | 0.0 | 2.0 | 0.00 | 0.00 | 0.00 | 55 | 1007.5 |
| 20260509211514 | 71 | 202 | 0.0 | 2.0 | 0.00 | 0.00 | 0.00 | 51 | 1007.4 |
| 20260509211007 | 71 | 214 | 0.0 | 2.0 | 0.00 | 0.00 | 0.00 | 54 | 1007.6 |
| 20260509210504 | 71 | 171 | 0.0 | 3.0 | 0.00 | 0.00 | 0.00 | 54 | 1007.5 |
| 20260509210015 | 70 | 305 | 1.0 | 4.0 | 0.00 | 0.00 | 0.00 | 54 | 1007.6 |
| 20260509205505 | 70 | 232 | 1.0 | 4.0 | 0.00 | 0.00 | 0.00 | 52 | 1007.6 |
| 20260509205007 | 71 | 113 | 2.0 | 7.0 | 0.00 | 0.00 | 0.00 | 52 | 1007.5 |
| 20260509204518 | 71 | 192 | 2.0 | 7.0 | 0.00 | 0.00 | 0.00 | 53 | 1007.4 |
| 20260509204012 | 71 | 198 | 2.0 | 5.0 | 0.00 | 0.00 | 0.00 | 52 | 1007.4 |
| 20260509203507 | 71 | 178 | 2.0 | 6.0 | 0.00 | 0.00 | 0.00 | 52 | 1007.3 |
| 20260509203024 | 71 | 225 | 2.0 | 8.0 | 0.00 | 0.00 | 0.00 | 51 | 1007.3 |
| 20260509202511 | 71 | 223 | 3.0 | 8.0 | 0.00 | 0.00 | 0.00 | 50 | 1007.3 |
| 20260509202015 | 71 | 131 | 2.0 | 6.0 | 0.00 | 0.00 | 0.00 | 54 | 1007.3 |
| 20260509201527 | 71 | 120 | 2.0 | 10.0 | 0.00 | 0.00 | 0.00 | 51 | 1007.3 |
| 20260509201003 | 71 | 135 | 2.0 | 10.0 | 0.00 | 0.00 | 0.00 | 50 | 1007.3 |
| 20260509200504 | 71 | 206 | 3.0 | 9.0 | 0.00 | 0.00 | 0.00 | 49 | 1007.4 |
| 20260509200011 | 72 | 167 | 5.0 | 9.0 | 0.00 | 0.00 | 0.00 | 49 | 1007.5 |
| 20260509195505 | 73 | 180 | 4.0 | 8.0 | 0.00 | 0.00 | 0.00 | 50 | 1007.6 |
| 20260509195005 | 72 | 227 | 4.0 | 8.0 | 0.00 | 0.00 | 0.00 | 49 | 1007.6 |
| 20260509194516 | 72 | 190 | 5.0 | 8.0 | 0.00 | 0.00 | 0.00 | 50 | 1007.6 |
| 20260509194009 | 71 | 169 | 2.0 | 8.0 | 0.00 | 0.00 | 0.00 | 50 | 1007.6 |
| 20260509193505 | 71 | 302 | 2.0 | 8.0 | 0.00 | 0.00 | 0.00 | 49 | 1007.7 |
| 20260509193020 | 72 | 130 | 4.0 | 7.0 | 0.00 | 0.00 | 0.00 | 51 | 1007.9 |
| 20260509192508 | 72 | 230 | 2.0 | 12.0 | 0.00 | 0.00 | 0.00 | 50 | 1007.8 |
| 20260509192008 | 71 | 66 | 3.0 | 12.0 | 0.00 | 0.00 | 0.00 | 51 | 1007.8 |
| 20260509191525 | 71 | 119 | 4.0 | 11.0 | 0.00 | 0.00 | 0.00 | 51 | 1007.9 |
| 20260509191006 | 71 | 127 | 6.0 | 11.0 | 0.00 | 0.00 | 0.00 | 51 | 1008.0 |
| 20260509190508 | 71 | 198 | 2.0 | 9.0 | 0.00 | 0.00 | 0.00 | 52 | 1008.2 |
| 20260509190025 | 70 | 196 | 3.0 | 9.0 | 0.00 | 0.00 | 0.00 | 53 | 1008.3 |
| 20260509185508 | 70 | 168 | 4.0 | 9.0 | 0.00 | 0.00 | 0.00 | 57 | 1008.3 |
| 20260509185006 | 71 | 144 | 2.0 | 8.0 | 0.00 | 0.00 | 0.00 | 59 | 1008.3 |
| 20260509184517 | 70 | 116 | 2.0 | 8.0 | 0.00 | 0.00 | 0.00 | 56 | 1008.5 |
| 20260509184005 | 69 | 156 | 4.0 | 8.0 | 0.00 | 0.00 | 0.00 | 54 | 1008.5 |
| 20260509183503 | 69 | 150 | 2.0 | 8.0 | 0.00 | 0.00 | 0.00 | 55 | 1008.7 |
| 20260509183018 | 69 | 198 | 3.0 | 6.0 | 0.00 | 0.00 | 0.00 | 57 | 1008.8 |
| 20260509182506 | 68 | 196 | 1.0 | 6.0 | 0.00 | 0.00 | 0.00 | 58 | 1009.0 |
| 20260509182002 | 68 | 207 | 1.0 | 4.0 | 0.00 | 0.00 | 0.00 | 58 | 1008.9 |
| 20260509181503 | 67 | 214 | 1.0 | 4.0 | 0.00 | 0.00 | 0.00 | 55 | 1008.8 |
| 20260509181003 | 67 | 215 | 1.0 | 5.0 | 0.00 | 0.00 | 0.00 | 57 | 1009.0 |
| 20260509180504 | 67 | 121 | 2.0 | 5.0 | 0.00 | 0.00 | 0.00 | 58 | 1008.9 |
| 20260509180003 | 66 | 96 | 2.0 | 4.0 | 0.00 | 0.00 | 0.00 | 58 | 1008.8 |
| 20260509175502 | 66 | 121 | 0.0 | 4.0 | 0.00 | 0.00 | 0.00 | 56 | 1008.8 |
| 20260509175002 | 66 | 140 | 1.0 | 3.0 | 0.00 | 0.00 | 0.00 | 57 | 1009.3 |
| 20260509174505 | 66 | 135 | 1.0 | 2.0 | 0.00 | 0.00 | 0.00 | 57 | 1009.4 |
| 20260509174002 | 67 | 202 | 1.0 | 3.0 | 0.00 | 0.00 | 0.00 | 54 | 1009.6 |
| 20260509173504 | 67 | 215 | 1.0 | 3.0 | 0.00 | 0.00 | 0.00 | 57 | 1009.6 |
| 20260509173009 | 67 | 239 | 1.0 | 5.0 | 0.00 | 0.00 | 0.00 | 55 | 1009.7 |
| 20260509172502 | 66 | 340 | 1.0 | 5.0 | 0.00 | 0.00 | 0.00 | 56 | 1009.8 |
| 20260509172002 | 66 | 182 | 3.0 | 6.0 | 0.00 | 0.00 | 0.00 | 56 | 1009.9 |
| 20260509171510 | 67 | 132 | 2.0 | 6.0 | 0.00 | 0.00 | 0.00 | 53 | 1009.9 |
| 20260509171003 | 67 | 173 | 0.0 | 4.0 | 0.00 | 0.00 | 0.00 | 58 | 1010.0 |
| 20260509170504 | 66 | 243 | 1.0 | 5.0 | 0.00 | 0.00 | 0.00 | 55 | 1009.9 |
| 20260509170013 | 66 | 234 | 2.0 | 8.0 | 0.00 | 0.00 | 0.00 | 55 | 1009.9 |
| 20260509165502 | 67 | 265 | 4.0 | 8.0 | 0.00 | 0.00 | 0.00 | 55 | 1009.8 |
| 20260509165002 | 66 | 308 | 1.0 | 5.0 | 0.00 | 0.00 | 0.00 | 59 | 1009.9 |
| 20260509164506 | 65 | 208 | 2.0 | 4.0 | 0.00 | 0.00 | 0.00 | 56 | 1009.9 |
| 20260509164003 | 65 | 225 | 1.0 | 7.0 | 0.00 | 0.00 | 0.00 | 57 | 1010.0 |
| 20260509163504 | 65 | 277 | 3.0 | 7.0 | 0.00 | 0.00 | 0.00 | 56 | 1010.1 |
| 20260509163002 | 64 | 105 | 1.0 | 7.0 | 0.00 | 0.00 | 0.00 | 57 | 1010.2 |
| 20260509162502 | 65 | 227 | 2.0 | 7.0 | 0.00 | 0.00 | 0.00 | 56 | 1010.2 |
| 20260509162002 | 65 | 180 | 3.0 | 7.0 | 0.00 | 0.00 | 0.00 | 58 | 1010.0 |
| 20260509161503 | 65 | 137 | 3.0 | 7.0 | 0.00 | 0.00 | 0.00 | 59 | 1010.2 |
| 20260509161005 | 65 | 201 | 2.0 | 8.0 | 0.00 | 0.00 | 0.00 | 60 | 1010.3 |
| 20260509160503 | 65 | 187 | 4.0 | 8.0 | 0.00 | 0.00 | 0.00 | 56 | 1010.3 |
| 20260509160004 | 64 | 209 | 1.0 | 7.0 | 0.00 | 0.00 | 0.00 | 56 | 1010.0 |
| 20260509155502 | 64 | 182 | 3.0 | 7.0 | 0.00 | 0.00 | 0.00 | 58 | 1010.1 |
| 20260509155005 | 64 | 153 | 3.0 | 6.0 | 0.00 | 0.00 | 0.00 | 56 | 1010.1 |
| 20260509154505 | 64 | 220 | 2.0 | 7.0 | 0.00 | 0.00 | 0.00 | 56 | 1010.1 |
| 20260509154003 | 64 | 103 | 4.0 | 7.0 | 0.00 | 0.00 | 0.00 | 55 | 1010.1 |
| 20260509153502 | 65 | 185 | 2.0 | 6.0 | 0.00 | 0.00 | 0.00 | 60 | 1010.0 |
| 20260509153009 | 64 | 247 | 2.0 | 6.0 | 0.00 | 0.00 | 0.00 | 57 | 1009.9 |
| 20260509152504 | 64 | 150 | 1.0 | 6.0 | 0.00 | 0.00 | 0.00 | 57 | 1010.0 |
| 20260509152004 | 64 | 90 | 1.0 | 6.0 | 0.00 | 0.00 | 0.00 | 58 | 1010.1 |
| 20260509151508 | 63 | 154 | 3.0 | 6.0 | 0.00 | 0.00 | 0.00 | 57 | 1010.0 |
| 20260509151006 | 62 | 24 | 1.0 | 7.0 | 0.00 | 0.00 | 0.00 | 58 | 1010.0 |
| 20260509150502 | 63 | 168 | 2.0 | 7.0 | 0.00 | 0.00 | 0.00 | 58 | 1010.1 |
| 20260509150005 | 63 | 124 | 1.0 | 4.0 | 0.00 | 0.00 | 0.00 | 59 | 1010.1 |
| 20260509145503 | 64 | 225 | 2.0 | 4.0 | 0.00 | 0.00 | 0.00 | 58 | 1010.2 |
| 20260509145003 | 63 | 303 | 0.0 | 3.0 | 0.00 | 0.00 | 0.00 | 60 | 1010.2 |
| 20260509144504 | 62 | 284 | 0.0 | 4.0 | 0.00 | 0.00 | 0.00 | 58 | 1010.2 |
| 20260509144003 | 62 | 233 | 3.0 | 6.0 | 0.00 | 0.00 | 0.00 | 59 | 1010.3 |
| 20260509143506 | 61 | 104 | 1.0 | 6.0 | 0.00 | 0.00 | 0.00 | 59 | 1010.5 |
| 20260509143012 | 61 | 207 | 2.0 | 4.0 | 0.00 | 0.00 | 0.00 | 60 | 1010.5 |
| 20260509142503 | 61 | 309 | 0.0 | 3.0 | 0.00 | 0.00 | 0.00 | 59 | 1010.5 |
| 20260509142004 | 60 | 273 | 0.0 | 5.0 | 0.00 | 0.00 | 0.00 | 63 | 1010.5 |
| 20260509141512 | 59 | 154 | 0.0 | 5.0 | 0.00 | 0.00 | 0.00 | 62 | 1010.6 |
| 20260509141006 | 59 | 216 | 1.0 | 5.0 | 0.00 | 0.00 | 0.00 | 60 | 1010.7 |
| 20260509140507 | 58 | 205 | 2.0 | 5.0 | 0.00 | 0.00 | 0.00 | 62 | 1010.8 |
| 20260509140014 | 58 | 222 | 1.0 | 5.0 | 0.00 | 0.00 | 0.00 | 63 | 1010.9 |
| 20260509135503 | 57 | 274 | 3.0 | 6.0 | 0.00 | 0.00 | 0.00 | 62 | 1010.9 |
| 20260509135004 | 58 | 268 | 3.0 | 7.0 | 0.00 | 0.00 | 0.00 | 64 | 1010.9 |
| 20260509134503 | 57 | 116 | 3.0 | 7.0 | 0.00 | 0.00 | 0.00 | 63 | 1010.9 |
| 20260509134006 | 57 | 198 | 2.0 | 6.0 | 0.00 | 0.00 | 0.00 | 67 | 1010.8 |
| 20260509133504 | 56 | 226 | 2.0 | 5.0 | 0.00 | 0.00 | 0.00 | 66 | 1010.8 |
| 20260509133007 | 56 | 227 | 0.0 | 4.0 | 0.00 | 0.00 | 0.00 | 67 | 1010.8 |
| 20260509132504 | 55 | 130 | 3.0 | 4.0 | 0.00 | 0.00 | 0.00 | 67 | 1010.8 |
| 20260509132003 | 55 | 167 | 0.0 | 4.0 | 0.00 | 0.00 | 0.00 | 68 | 1010.7 |
| 20260509131510 | 55 | 159 | 1.0 | 4.0 | 0.00 | 0.00 | 0.00 | 67 | 1010.6 |
| 20260509131004 | 54 | 208 | 1.0 | 2.0 | 0.00 | 0.00 | 0.00 | 68 | 1010.7 |
| 20260509130506 | 54 | 83 | 0.0 | 2.0 | 0.00 | 0.00 | 0.00 | 68 | 1010.7 |
| 20260509130045 | 54 | 202 | 1.0 | 2.0 | 0.00 | 0.00 | 0.00 | 68 | 1010.8 |
| 20260509125505 | 54 | 210 | 1.0 | 5.0 | 0.00 | 0.00 | 0.00 | 69 | 1010.8 |
| 20260509125004 | 54 | 192 | 1.0 | 5.0 | 0.00 | 0.00 | 0.00 | 69 | 1010.7 |
| 20260509124529 | 54 | 188 | 1.0 | 4.0 | 0.00 | 0.00 | 0.00 | 69 | 1010.8 |
| 20260509124005 | 54 | 182 | 1.0 | 4.0 | 0.00 | 0.00 | 0.00 | 68 | 1010.8 |
| 20260509123504 | 54 | 212 | 0.0 | 2.0 | 0.00 | 0.00 | 0.00 | 68 | 1010.8 |
| 20260509123004 | 54 | 105 | 1.0 | 3.0 | 0.00 | 0.00 | 0.00 | 68 | 1010.9 |
| 20260509122505 | 54 | 157 | 0.0 | 3.0 | 0.00 | 0.00 | 0.00 | 68 | 1010.8 |
| 20260509122003 | 54 | 103 | 1.0 | 3.0 | 0.00 | 0.00 | 0.00 | 68 | 1010.7 |
| 20260509121509 | 54 | 136 | 1.0 | 4.0 | 0.00 | 0.00 | 0.00 | 67 | 1010.7 |
| 20260509121004 | 53 | 123 | 0.0 | 4.0 | 0.00 | 0.00 | 0.00 | 68 | 1010.7 |
| 20260509120506 | 53 | 122 | 1.0 | 4.0 | 0.00 | 0.00 | 0.00 | 68 | 1010.8 |
| 20260509120016 | 53 | 144 | 2.0 | 4.0 | 0.00 | 0.00 | 0.00 | 68 | 1010.7 |
| 20260509115507 | 53 | 104 | 1.0 | 5.0 | 0.00 | 0.00 | 0.00 | 70 | 1010.7 |
| 20260509115009 | 53 | 104 | 2.0 | 5.0 | 0.00 | 0.00 | 0.00 | 70 | 1010.6 |
| 20260509114519 | 53 | 117 | 3.0 | 5.0 | 0.00 | 0.00 | 0.00 | 70 | 1010.6 |
| 20260509114007 | 53 | 138 | 2.0 | 5.0 | 0.00 | 0.00 | 0.00 | 71 | 1010.5 |
| 20260509113508 | 52 | 113 | 1.0 | 4.0 | 0.00 | 0.00 | 0.00 | 71 | 1010.5 |
| 20260509113022 | 52 | 113 | 2.0 | 4.0 | 0.00 | 0.00 | 0.00 | 70 | 1010.5 |
| 20260509112508 | 52 | 131 | 1.0 | 3.0 | 0.00 | 0.00 | 0.00 | 72 | 1010.4 |
| 20260509112007 | 52 | 125 | 1.0 | 3.0 | 0.00 | 0.00 | 0.00 | 71 | 1010.4 |
| 20260509111506 | 52 | 174 | 0.0 | 2.0 | 0.00 | 0.00 | 0.00 | 71 | 1010.3 |
| 20260509111004 | 52 | 20 | 0.0 | 2.0 | 0.00 | 0.00 | 0.00 | 71 | 1010.2 |
| 20260509110506 | 52 | 31 | 0.0 | 2.0 | 0.00 | 0.00 | 0.00 | 70 | 1010.2 |
| 20260509110011 | 52 | 82 | 0.0 | 2.0 | 0.00 | 0.00 | 0.00 | 71 | 1010.3 |
| 20260509105505 | 52 | 17 | 0.0 | 2.0 | 0.00 | 0.00 | 0.00 | 72 | 1010.3 |
| 20260509105007 | 52 | 102 | 0.0 | 2.0 | 0.00 | 0.00 | 0.00 | 69 | 1010.3 |
| 20260509104517 | 52 | 92 | 0.0 | 2.0 | 0.00 | 0.00 | 0.00 | 67 | 1010.2 |
| 20260509104007 | 53 | 313 | 0.0 | 2.0 | 0.00 | 0.00 | 0.00 | 67 | 1010.3 |
| 20260509103506 | 53 | 313 | 0.0 | 2.0 | 0.00 | 0.00 | 0.00 | 67 | 1010.3 |
| 20260509103022 | 53 | 188 | 0.0 | 1.0 | 0.00 | 0.00 | 0.00 | 65 | 1010.4 |
| 20260509102509 | 53 | 188 | 0.0 | 2.0 | 0.00 | 0.00 | 0.00 | 63 | 1010.3 |
| 20260509102007 | 53 | 188 | 0.0 | 2.0 | 0.00 | 0.00 | 0.00 | 64 | 1010.4 |
| 20260509101533 | 53 | 188 | 0.0 | 2.0 | 0.00 | 0.00 | 0.00 | 64 | 1010.4 |
| 20260509101010 | 53 | 139 | 0.0 | 2.0 | 0.00 | 0.00 | 0.00 | 63 | 1010.5 |
| 20260509100507 | 53 | 223 | 0.0 | 2.0 | 0.00 | 0.00 | 0.00 | 63 | 1010.5 |
| 20260509100027 | 53 | 213 | 0.0 | 2.0 | 0.00 | 0.00 | 0.00 | 63 | 1010.4 |
| 20260509095504 | 53 | 192 | 1.0 | 3.0 | 0.00 | 0.00 | 0.00 | 63 | 1010.3 |
| 20260509095005 | 54 | 211 | 1.0 | 4.0 | 0.00 | 0.00 | 0.00 | 62 | 1010.4 |
| 20260509094520 | 54 | 181 | 2.0 | 4.0 | 0.00 | 0.00 | 0.00 | 62 | 1010.6 |
| 20260509094004 | 54 | 226 | 1.0 | 3.0 | 0.00 | 0.00 | 0.00 | 62 | 1010.6 |
| 20260509093506 | 54 | 171 | 1.0 | 3.0 | 0.00 | 0.00 | 0.00 | 61 | 1010.5 |
| 20260509093020 | 54 | 200 | 0.0 | 3.0 | 0.00 | 0.00 | 0.00 | 61 | 1010.4 |
| 20260509092503 | 54 | 185 | 0.0 | 3.0 | 0.00 | 0.00 | 0.00 | 61 | 1010.4 |
| 20260509092002 | 54 | 178 | 0.0 | 3.0 | 0.00 | 0.00 | 0.00 | 61 | 1010.3 |
| 20260509091506 | 54 | 159 | 0.0 | 4.0 | 0.00 | 0.00 | 0.00 | 60 | 1010.4 |
| 20260509091004 | 54 | 182 | 2.0 | 4.0 | 0.00 | 0.00 | 0.00 | 60 | 1010.5 |
| 20260509090504 | 54 | 186 | 0.0 | 4.0 | 0.00 | 0.00 | 0.00 | 60 | 1010.6 |
| 20260509090008 | 55 | 192 | 1.0 | 4.0 | 0.00 | 0.00 | 0.00 | 59 | 1010.6 |
| 20260509085503 | 55 | 183 | 1.0 | 4.0 | 0.00 | 0.00 | 0.00 | 59 | 1010.7 |
| 20260509085007 | 55 | 203 | 1.0 | 4.0 | 0.00 | 0.00 | 0.00 | 59 | 1010.7 |
| 20260509084512 | 55 | 220 | 1.0 | 4.0 | 0.00 | 0.00 | 0.00 | 60 | 1010.7 |
| 20260509084005 | 55 | 198 | 1.0 | 4.0 | 0.00 | 0.00 | 0.00 | 59 | 1010.7 |
| 20260509083505 | 55 | 197 | 1.0 | 4.0 | 0.00 | 0.00 | 0.00 | 61 | 1010.7 |
| 20260509083017 | 55 | 148 | 1.0 | 3.0 | 0.00 | 0.00 | 0.00 | 61 | 1010.7 |
| 20260509082509 | 55 | 182 | 0.0 | 5.0 | 0.00 | 0.00 | 0.00 | 60 | 1010.8 |
| 20260509082006 | 55 | 146 | 1.0 | 5.0 | 0.00 | 0.00 | 0.00 | 59 | 1010.8 |
| 20260509081505 | 55 | 184 | 1.0 | 4.0 | 0.00 | 0.00 | 0.00 | 60 | 1010.8 |
| 20260509081002 | 54 | 150 | 0.0 | 3.0 | 0.00 | 0.00 | 0.00 | 62 | 1010.8 |
| 20260509080502 | 55 | 177 | 0.0 | 3.0 | 0.00 | 0.00 | 0.00 | 61 | 1010.8 |
| 20260509080005 | 55 | 245 | 1.0 | 4.0 | 0.00 | 0.00 | 0.00 | 60 | 1010.8 |
| 20260509075504 | 54 | 221 | 1.0 | 6.0 | 0.00 | 0.00 | 0.00 | 60 | 1010.8 |
| 20260509075006 | 54 | 161 | 2.0 | 6.0 | 0.00 | 0.00 | 0.00 | 61 | 1010.9 |
| 20260509074508 | 53 | 212 | 1.0 | 6.0 | 0.00 | 0.00 | 0.00 | 62 | 1010.9 |
| 20260509074003 | 53 | 202 | 1.0 | 2.0 | 0.00 | 0.00 | 0.00 | 65 | 1011.1 |
| 20260509073505 | 53 | 192 | 0.0 | 2.0 | 0.00 | 0.00 | 0.00 | 65 | 1011.0 |
| 20260509073015 | 53 | 250 | 0.0 | 2.0 | 0.00 | 0.00 | 0.00 | 65 | 1010.9 |
| 20260509072506 | 53 | 156 | 0.0 | 2.0 | 0.00 | 0.00 | 0.00 | 65 | 1010.9 |
| 20260509072006 | 53 | 121 | 0.0 | 2.0 | 0.00 | 0.00 | 0.00 | 63 | 1010.9 |
| 20260509071520 | 53 | 124 | 0.0 | 2.0 | 0.00 | 0.00 | 0.00 | 63 | 1011.0 |
| 20260509071009 | 53 | 138 | 1.0 | 2.0 | 0.00 | 0.00 | 0.00 | 61 | 1010.9 |
| 20260509070508 | 53 | 117 | 1.0 | 2.0 | 0.00 | 0.00 | 0.00 | 62 | 1010.9 |
| 20260509070004 | 53 | 125 | 1.0 | 2.0 | 0.00 | 0.00 | 0.00 | 62 | 1011.0 |
| 20260509065502 | 53 | 123 | 0.0 | 2.0 | 0.00 | 0.00 | 0.00 | 63 | 1010.9 |
| 20260509065004 | 53 | 126 | 1.0 | 2.0 | 0.00 | 0.00 | 0.00 | 61 | 1011.1 |
| 20260509064508 | 53 | 130 | 1.0 | 2.0 | 0.00 | 0.00 | 0.00 | 62 | 1011.0 |
| 20260509064007 | 53 | 120 | 0.0 | 2.0 | 0.00 | 0.00 | 0.00 | 63 | 1011.0 |
| 20260509063502 | 53 | 116 | 0.0 | 2.0 | 0.00 | 0.00 | 0.00 | 64 | 1011.2 |
| 20260509063011 | 53 | 116 | 0.0 | 2.0 | 0.00 | 0.00 | 0.00 | 63 | 1011.1 |
| 20260509062509 | 54 | 116 | 1.0 | 2.0 | 0.00 | 0.00 | 0.00 | 60 | 1011.2 |
| 20260509062008 | 54 | 131 | 0.0 | 2.0 | 0.00 | 0.00 | 0.00 | 61 | 1011.1 |
| 20260509061520 | 54 | 131 | 1.0 | 2.0 | 0.00 | 0.00 | 0.00 | 62 | 1011.1 |
| 20260509061008 | 54 | 127 | 1.0 | 2.0 | 0.00 | 0.00 | 0.00 | 60 | 1011.3 |
| 20260509060505 | 54 | 136 | 0.0 | 2.0 | 0.00 | 0.00 | 0.00 | 61 | 1011.3 |
| 20260509060023 | 54 | 138 | 0.0 | 2.0 | 0.00 | 0.00 | 0.00 | 61 | 1011.3 |
| 20260509055508 | 54 | 111 | 0.0 | 2.0 | 0.00 | 0.00 | 0.00 | 62 | 1011.3 |
| 20260509055006 | 54 | 111 | 0.0 | 2.0 | 0.00 | 0.00 | 0.00 | 60 | 1011.4 |
| 20260509054524 | 54 | 138 | 0.0 | 2.0 | 0.00 | 0.00 | 0.00 | 62 | 1011.4 |
| 20260509054006 | 54 | 138 | 0.0 | 2.0 | 0.00 | 0.00 | 0.00 | 60 | 1011.4 |
| 20260509053504 | 55 | 138 | 0.0 | 3.0 | 0.00 | 0.00 | 0.00 | 60 | 1011.4 |
| 20260509053013 | 55 | 156 | 1.0 | 3.0 | 0.00 | 0.00 | 0.00 | 60 | 1011.4 |
| 20260509052503 | 53 | 105 | 0.0 | 2.0 | 0.00 | 0.00 | 0.00 | 62 | 1011.5 |
| 20260509052004 | 53 | 9 | 0.0 | 2.0 | 0.00 | 0.00 | 0.00 | 65 | 1011.4 |
| 20260509051513 | 53 | 9 | 0.0 | 2.0 | 0.00 | 0.00 | 0.00 | 66 | 1011.6 |
| 20260509051007 | 53 | 9 | 0.0 | 2.0 | 0.00 | 0.00 | 0.00 | 64 | 1011.5 |
| 20260509050512 | 54 | 9 | 0.0 | 2.0 | 0.00 | 0.00 | 0.00 | 63 | 1011.6 |
| 20260509050025 | 54 | 46 | 0.0 | 2.0 | 0.00 | 0.00 | 0.00 | 63 | 1011.5 |
| 20260509045506 | 54 | 46 | 0.0 | 2.0 | 0.00 | 0.00 | 0.00 | 64 | 1011.5 |
| 20260509045010 | 54 | 46 | 0.0 | 2.0 | 0.00 | 0.00 | 0.00 | 64 | 1011.6 |
| 20260509044524 | 54 | 71 | 0.0 | 2.0 | 0.00 | 0.00 | 0.00 | 61 | 1011.5 |
| 20260509044006 | 54 | 88 | 0.0 | 3.0 | 0.00 | 0.00 | 0.00 | 62 | 1011.4 |
| 20260509043507 | 55 | 176 | 0.0 | 3.0 | 0.00 | 0.00 | 0.00 | 58 | 1011.4 |
| 20260509043026 | 56 | 115 | 1.0 | 3.0 | 0.00 | 0.00 | 0.00 | 55 | 1011.3 |
| 20260509042504 | 56 | 127 | 1.0 | 2.0 | 0.00 | 0.00 | 0.00 | 56 | 1011.4 |
| 20260509042005 | 56 | 145 | 1.0 | 5.0 | 0.00 | 0.00 | 0.00 | 55 | 1011.3 |
| 20260509041519 | 56 | 111 | 1.0 | 5.0 | 0.00 | 0.00 | 0.00 | 55 | 1011.4 |
| 20260509041005 | 56 | 135 | 1.0 | 4.0 | 0.00 | 0.00 | 0.00 | 55 | 1011.4 |
| 20260509040509 | 56 | 130 | 1.0 | 4.0 | 0.00 | 0.00 | 0.00 | 55 | 1011.4 |
| 20260509040033 | 56 | 117 | 1.0 | 4.0 | 0.00 | 0.00 | 0.00 | 54 | 1011.5 |
| 20260509035508 | 57 | 138 | 2.0 | 4.0 | 0.00 | 0.00 | 0.00 | 54 | 1011.5 |
| 20260509035011 | 57 | 113 | 1.0 | 3.0 | 0.00 | 0.00 | 0.00 | 54 | 1011.5 |
| 20260509034520 | 57 | 147 | 1.0 | 3.0 | 0.00 | 0.00 | 0.00 | 53 | 1011.5 |
| 20260509034009 | 57 | 155 | 1.0 | 5.0 | 0.00 | 0.00 | 0.00 | 54 | 1011.5 |
| 20260509033508 | 57 | 114 | 1.0 | 5.0 | 0.00 | 0.00 | 0.00 | 53 | 1011.5 |
| 20260509033024 | 57 | 161 | 2.0 | 4.0 | 0.00 | 0.00 | 0.00 | 53 | 1011.5 |
| 20260509032509 | 57 | 136 | 2.0 | 4.0 | 0.00 | 0.00 | 0.00 | 53 | 1011.6 |
| 20260509032012 | 57 | 144 | 2.0 | 5.0 | 0.00 | 0.00 | 0.00 | 53 | 1011.6 |
| 20260509031530 | 57 | 122 | 2.0 | 5.0 | 0.00 | 0.00 | 0.00 | 53 | 1011.7 |
| 20260509031014 | 57 | 134 | 1.0 | 4.0 | 0.00 | 0.00 | 0.00 | 54 | 1011.8 |
| 20260509030503 | 57 | 148 | 2.0 | 4.0 | 0.00 | 0.00 | 0.00 | 55 | 1011.7 |
| 20260509030016 | 56 | 109 | 3.0 | 4.0 | 0.00 | 0.00 | 0.00 | 55 | 1011.8 |
| 20260509025505 | 56 | 111 | 2.0 | 4.0 | 0.00 | 0.00 | 0.00 | 56 | 1011.8 |
| 20260509025005 | 56 | 107 | 1.0 | 3.0 | 0.00 | 0.00 | 0.00 | 59 | 1011.8 |
| 20260509024517 | 56 | 99 | 1.0 | 2.0 | 0.00 | 0.00 | 0.00 | 60 | 1011.9 |
| 20260509024010 | 57 | 108 | 2.0 | 3.0 | 0.00 | 0.00 | 0.00 | 55 | 1011.9 |
| 20260509023507 | 58 | 99 | 2.0 | 3.0 | 0.00 | 0.00 | 0.00 | 55 | 1011.9 |
| 20260509023025 | 58 | 99 | 1.0 | 4.0 | 0.00 | 0.00 | 0.00 | 54 | 1011.8 |
| 20260509022508 | 58 | 98 | 2.0 | 4.0 | 0.00 | 0.00 | 0.00 | 52 | 1011.8 |